Language: 


Des rapports , des résumés tant et plus, au choix de chacun....


Données statistiques de la station
Quotidien Rapport Janvier 29, 2018 Unités:  Métrique    Anglais   les deux
« Précédent Jour
Suivant Jour »
Quotidien Hebdomadaire Mensuel Annuel Actuel
  Haut: Bas: Moyen:
Température: -17.8 °C -15.3 °C -12.1 °C
Pt de rosée: -17.8 °C -15.6 °C -12.8 °C
Humidité: Humidity % 80 % 90 %
Vitesse du vent: 0 km/h 0 km/h 32.5 km/h
Rafales: 0 km/h - -
Vent:- - WSW
Pression: 0 hPa 34669.3 hPa -
Précipitation: 12.7 mm    
Historical Graphs
 
 
Données statistiques pour Janvier 29, 2018
Heure Température Point de rosée Pression Vent Vitesse du vent Refales Humidité Pluie (taux horaire)
-17.8 °C -17.8 °C 0 hPa Calm     Humidity % 0 mm
00:02 -11.7 °C -11.7 °C 34909.7 hPa WSW 38.3 km/h 43.5 km/h 96 % 0 mm
00:07 -11.6 °C -11.7 °C 34909.7 hPa West 26.2 km/h 44.6 km/h 96 % 0 mm
00:12 -11.6 °C -12.2 °C 34909.7 hPa WSW 35.2 km/h 44.6 km/h 95 % 0 mm
00:17 -11.6 °C -12.2 °C 34909.7 hPa WSW 27.2 km/h 51 km/h 95 % 0 mm
00:22 -11.6 °C -12.2 °C 34909.7 hPa WSW 29.5 km/h 51 km/h 94 % 0 mm
00:27 -11.6 °C -12.2 °C 34909.7 hPa West 34.8 km/h 49.7 km/h 94 % 0 mm
00:32 -11.6 °C -12.2 °C 34875.8 hPa WSW 34.1 km/h 45.9 km/h 94 % 0 mm
00:37 -11.6 °C -12.2 °C 34875.8 hPa WSW 39.9 km/h 45.9 km/h 93 % 0 mm
00:42 -11.6 °C -12.2 °C 34875.8 hPa West 41.2 km/h 51 km/h 93 % 0 mm
00:47 -11.6 °C -12.2 °C 34875.8 hPa WSW 25.4 km/h 51 km/h 93 % 0 mm
00:52 -11.6 °C -12.2 °C 34875.8 hPa WSW 42.2 km/h 45.9 km/h 93 % 0 mm
00:57 -11.6 °C -12.2 °C 34875.8 hPa WSW 36.5 km/h 50.5 km/h 93 % 0 mm
01:03 -11.6 °C -12.2 °C 34875.8 hPa West 33.2 km/h 50.5 km/h 93 % 0 mm
01:08 -11.5 °C -12.2 °C 34875.8 hPa WSW 43.5 km/h 53.9 km/h 93 % 0 mm
01:13 -11.5 °C -12.2 °C 34875.8 hPa WSW 34.1 km/h 53.9 km/h 93 % 0 mm
01:18 -11.6 °C -12.2 °C 34875.8 hPa WSW 32.3 km/h 45.1 km/h 93 % 0 mm
01:23 -11.6 °C -12.2 °C 34875.8 hPa West 49.7 km/h 49.7 km/h 93 % 0 mm
01:28 -11.6 °C -12.2 °C 34875.8 hPa WSW 50.5 km/h 50.5 km/h 93 % 0 mm
01:33 -11.6 °C -12.2 °C 34875.8 hPa SW 26.2 km/h 50.5 km/h 93 % 0 mm
01:38 -11.6 °C -12.2 °C 34875.8 hPa WSW 39.4 km/h 50.5 km/h 93 % 0 mm
01:43 -11.7 °C -12.2 °C 34875.8 hPa WSW 45.9 km/h 45.9 km/h 93 % 0 mm
01:48 -11.7 °C -12.2 °C 34875.8 hPa West 36.5 km/h 49.7 km/h 93 % 0 mm
01:53 -11.7 °C -12.2 °C 34875.8 hPa WSW 27.2 km/h 49.7 km/h 92 % 0 mm
01:58 -11.7 °C -12.2 °C 34875.8 hPa WSW 34.1 km/h 39.9 km/h 92 % 0 mm
02:03 -11.7 °C -12.2 °C 34875.8 hPa WSW 25.4 km/h 44.1 km/h 93 % 0 mm
02:08 -11.7 °C -12.2 °C 34875.8 hPa WSW 27.2 km/h 44.1 km/h 93 % 0 mm
02:13 -11.7 °C -12.2 °C 34875.8 hPa WSW 38.3 km/h 51 km/h 92 % 0 mm
02:18 -11.7 °C -12.2 °C 34875.8 hPa WSW 32.3 km/h 51 km/h 92 % 0 mm
02:23 -11.7 °C -12.2 °C 34875.8 hPa WSW 37.5 km/h 45.9 km/h 92 % 0 mm
02:29 -11.7 °C -12.2 °C 34875.8 hPa WSW 36 km/h 57.3 km/h 92 % 0 mm
02:34 -11.8 °C -12.8 °C 34875.8 hPa WSW 32.3 km/h 57.3 km/h 92 % 0 mm
02:39 -11.8 °C -12.8 °C 34875.8 hPa WSW 33.6 km/h 51.5 km/h 92 % 0 mm
02:44 -11.8 °C -12.2 °C 34841.9 hPa West 39.4 km/h 57.9 km/h 93 % 0 mm
02:49 -11.8 °C -12.2 °C 34841.9 hPa WSW 43.5 km/h 57.9 km/h 93 % 0 mm
02:54 -11.8 °C -12.2 °C 34841.9 hPa West 33.2 km/h 45.9 km/h 93 % 0 mm
02:59 -11.8 °C -12.2 °C 34841.9 hPa West 38.3 km/h 45.9 km/h 93 % 0 mm
03:04 -11.8 °C -12.2 °C 34841.9 hPa WSW 19.6 km/h 42.2 km/h 93 % 0 mm
03:09 -11.8 °C -12.2 °C 34841.9 hPa West 41.7 km/h 45.1 km/h 93 % 0 mm
03:14 -11.8 °C -12.2 °C 34841.9 hPa WSW 33.2 km/h 45.9 km/h 93 % 0 mm
03:19 -11.8 °C -12.2 °C 34841.9 hPa West 39.9 km/h 50.5 km/h 94 % 0 mm
03:24 -11.8 °C -12.2 °C 34841.9 hPa WSW 38.3 km/h 50.5 km/h 94 % 0 mm
03:29 -11.8 °C -12.2 °C 34841.9 hPa West 20.9 km/h 46.8 km/h 93 % 0 mm
03:34 -11.8 °C -12.2 °C 34841.9 hPa WSW 44.6 km/h 62 km/h 93 % 0 mm
03:39 -11.7 °C -12.2 °C 34841.9 hPa WSW 51 km/h 62 km/h 93 % 0 mm
03:44 -11.7 °C -12.2 °C 34841.9 hPa West 39.9 km/h 58.6 km/h 93 % 0 mm
03:49 -11.7 °C -12.2 °C 34841.9 hPa WSW 46.8 km/h 60.3 km/h 92 % 0 mm
03:54 -11.7 °C -12.2 °C 34841.9 hPa WSW 37.5 km/h 60.3 km/h 92 % 0 mm
03:59 -11.7 °C -12.2 °C 34841.9 hPa WSW 45.9 km/h 60.3 km/h 91 % 0 mm
04:04 -11.7 °C -12.2 °C 34841.9 hPa West 32.3 km/h 51 km/h 91 % 0 mm
04:09 -11.7 °C -12.8 °C 34841.9 hPa WSW 40.7 km/h 57.9 km/h 90 % 0 mm
04:14 -11.7 °C -12.8 °C 34841.9 hPa West 27.7 km/h 57.9 km/h 90 % 0 mm
04:19 -11.7 °C -12.8 °C 34841.9 hPa WSW 41.7 km/h 49.7 km/h 90 % 0 mm
04:24 -11.7 °C -12.8 °C 34841.9 hPa WSW 27.2 km/h 55.7 km/h 90 % 0 mm
04:29 -11.7 °C -12.2 °C 34841.9 hPa WSW 27.2 km/h 55.7 km/h 91 % 0 mm
04:34 -11.7 °C -12.2 °C 34841.9 hPa West 28.5 km/h 49.2 km/h 92 % 0 mm
04:39 -11.7 °C -12.2 °C 34841.9 hPa WSW 46.8 km/h 51.5 km/h 92 % 0 mm
04:44 -11.7 °C -12.2 °C 34841.9 hPa WSW 33.2 km/h 65.5 km/h 92 % 0 mm
04:49 -11.7 °C -12.2 °C 34841.9 hPa West 61.3 km/h 65.5 km/h 92 % 0 mm
04:54 -11.7 °C -12.2 °C 34841.9 hPa West 51 km/h 61.3 km/h 92 % 0 mm
04:59 -11.7 °C -12.2 °C 34841.9 hPa WSW 40.7 km/h 62 km/h 92 % 0 mm
05:05 -11.7 °C -12.2 °C 34841.9 hPa WSW 44.1 km/h 65.5 km/h 91 % 0 mm
05:10 -11.7 °C -12.2 °C 34841.9 hPa WSW 44.6 km/h 65.5 km/h 91 % 0 mm
05:15 -11.7 °C -12.8 °C 34808.1 hPa West 27.2 km/h 70.6 km/h 89 % 0 mm
05:20 -11.7 °C -12.8 °C 34808.1 hPa West 63.7 km/h 70.6 km/h 89 % 0 mm
05:25 -11.7 °C -12.8 °C 34808.1 hPa West 52.8 km/h 66 km/h 89 % 0 mm
05:30 -11.7 °C -12.8 °C 34808.1 hPa WSW 43.5 km/h 65 km/h 88 % 0 mm
05:35 -11.7 °C -12.8 °C 34808.1 hPa WSW 51 km/h 62.6 km/h 89 % 0 mm
05:40 -11.7 °C -12.8 °C 34808.1 hPa WSW 35.2 km/h 57.9 km/h 90 % 0 mm
05:45 -11.7 °C -12.2 °C 34808.1 hPa WSW 43 km/h 55.2 km/h 91 % 0 mm
05:50 -11.7 °C -12.2 °C 34808.1 hPa WSW 32.3 km/h 55.2 km/h 91 % 0 mm
05:55 -11.8 °C -12.8 °C 34808.1 hPa WSW 45.1 km/h 46.8 km/h 92 % 0 mm
06:00 -11.8 °C -12.2 °C 34808.1 hPa WSW 39.9 km/h 50.5 km/h 93 % 0 mm
06:05 -11.8 °C -12.2 °C 34808.1 hPa WSW 28.5 km/h 51.5 km/h 94 % 0 mm
06:10 -11.9 °C -12.2 °C 34808.1 hPa West 34.8 km/h 51.5 km/h 94 % 0 mm
06:15 -11.9 °C -12.2 °C 34808.1 hPa WSW 24.8 km/h 44.6 km/h 95 % 0 mm
06:20 -11.9 °C -12.2 °C 34808.1 hPa WSW 31.9 km/h 44.6 km/h 95 % 0 mm
06:25 -11.9 °C -12.2 °C 34808.1 hPa West 28.5 km/h 46.3 km/h 94 % 0 mm
06:30 -11.8 °C -12.2 °C 34808.1 hPa West 31.4 km/h 46.3 km/h 94 % 0 mm
06:35 -11.8 °C -12.2 °C 34808.1 hPa WSW 29 km/h 45.1 km/h 93 % 0 mm
06:40 -11.8 °C -12.2 °C 34808.1 hPa WSW 37.5 km/h 51 km/h 93 % 0 mm
06:45 -11.8 °C -12.2 °C 34841.9 hPa WSW 19.6 km/h 51 km/h 94 % 0 mm
06:50 -11.9 °C -12.2 °C 34841.9 hPa West 46.3 km/h 46.3 km/h 94 % 0 mm
06:55 -11.9 °C -12.2 °C 34841.9 hPa WSW 34.8 km/h 56.6 km/h 95 % 0 mm
07:00 -11.9 °C -12.2 °C 34841.9 hPa WSW 33.6 km/h 56.6 km/h 95 % 0 mm
07:06 -11.9 °C -12.2 °C 34841.9 hPa West 42.2 km/h 45.1 km/h 94 % 0 mm
07:11 -11.9 °C -12.2 °C 34841.9 hPa WSW 44.6 km/h 45.1 km/h 94 % 0 mm
07:16 -11.9 °C -12.2 °C 34808.1 hPa WSW 24.8 km/h 49.7 km/h 94 % 0 mm
07:21 -11.9 °C -12.2 °C 34808.1 hPa WSW 31.4 km/h 49.7 km/h 94 % 0 mm
07:26 -11.9 °C -12.2 °C 34808.1 hPa West 58.6 km/h 83.4 km/h 93 % 0 mm
07:31 -11.9 °C -12.8 °C 34841.9 hPa WSW 33.2 km/h 83.4 km/h 89 % 0 mm
07:36 -11.9 °C -12.8 °C 34841.9 hPa West 44.1 km/h 70.6 km/h 89 % 0 mm
07:41 -11.9 °C -12.8 °C 34841.9 hPa West 32.3 km/h 54.4 km/h 89 % 0 mm
07:46 -11.9 °C -12.8 °C 34841.9 hPa WSW 24.8 km/h 56.6 km/h 89 % 0 mm
07:51 -11.9 °C -12.8 °C 34841.9 hPa WSW 57.3 km/h 68.4 km/h 89 % 0 mm
07:56 -11.8 °C -12.8 °C 34841.9 hPa SW 36 km/h 68.4 km/h 87 % 0 mm
08:01 -11.8 °C -12.8 °C 34774.2 hPa WSW 45.1 km/h 67.1 km/h 86 % 0 mm
08:06 -11.8 °C -12.8 °C 34774.2 hPa SW 56.6 km/h 66.6 km/h 86 % 0 mm
08:11 -11.8 °C -12.8 °C 34774.2 hPa West 39.4 km/h 66.6 km/h 87 % 0 mm
08:16 -11.8 °C -12.8 °C 34774.2 hPa WSW 40.7 km/h 60.8 km/h 86 % 0 mm
08:21 -11.8 °C -12.8 °C 34774.2 hPa SSW 39.9 km/h 60.3 km/h 87 % 0 mm
08:26 -11.8 °C -12.8 °C 34774.2 hPa WSW 39.9 km/h 60.3 km/h 86 % 0 mm
08:31 -11.8 °C -12.8 °C 34774.2 hPa WSW 32.3 km/h 58.6 km/h 86 % 0 mm
08:36 -11.8 °C -12.8 °C 34774.2 hPa WSW 15.6 km/h 63.2 km/h 85 % 0 mm
08:41 -11.8 °C -12.8 °C 34774.2 hPa WSW 41.7 km/h 63.2 km/h 85 % 0 mm
08:46 -11.9 °C -12.8 °C 34808.1 hPa West 39.9 km/h 57.3 km/h 85 % 0 mm
08:51 -11.8 °C -12.8 °C 34808.1 hPa WSW 43 km/h 55.7 km/h 85 % 0 mm
08:56 -11.8 °C -12.8 °C 34808.1 hPa West 31.4 km/h 61.3 km/h 85 % 0 mm
09:01 -11.8 °C -12.8 °C 34808.1 hPa West 44.1 km/h 62.6 km/h 85 % 0 mm
09:06 -11.9 °C -12.8 °C 34808.1 hPa WSW 35.2 km/h 62.6 km/h 85 % 0 mm
09:11 -11.9 °C -12.8 °C 34808.1 hPa WSW 25.4 km/h 50.5 km/h 85 % 0 mm
09:16 -11.9 °C -12.8 °C 34808.1 hPa West 51.5 km/h 51.5 km/h 85 % 0 mm
09:21 -11.8 °C -12.8 °C 34808.1 hPa West 45.9 km/h 51.5 km/h 85 % 0 mm
09:26 -11.8 °C -12.8 °C 34808.1 hPa WSW 27.7 km/h 55.2 km/h 85 % 0 mm
09:31 -11.8 °C -12.8 °C 34774.2 hPa West 48.1 km/h 55.2 km/h 85 % 0 mm
09:36 -11.8 °C -12.8 °C 34774.2 hPa West 38.3 km/h 67.9 km/h 85 % 0 mm
09:42 -11.8 °C -12.8 °C 34774.2 hPa West 31.4 km/h 67.9 km/h 85 % 0 mm
09:47 -11.8 °C -12.8 °C 34774.2 hPa West 41.7 km/h 65 km/h 85 % 0 mm
09:52 -11.8 °C -12.8 °C 34774.2 hPa West 26.2 km/h 60.8 km/h 85 % 0 mm
09:57 -11.8 °C -12.8 °C 34774.2 hPa WSW 39.9 km/h 55.7 km/h 85 % 0 mm
10:02 -11.8 °C -12.8 °C 34774.2 hPa WSW 28.5 km/h 55.2 km/h 85 % 0 mm
10:07 -11.8 °C -12.8 °C 34774.2 hPa WSW 48.1 km/h 55.2 km/h 85 % 0 mm
10:12 -11.8 °C -12.8 °C 34774.2 hPa West 40.7 km/h 57.3 km/h 85 % 0 mm
10:17 -11.8 °C -12.8 °C 34774.2 hPa WSW 26.2 km/h 57.3 km/h 85 % 0 mm
10:22 -11.8 °C -12.8 °C 34774.2 hPa WSW 33.2 km/h 46.8 km/h 85 % 0 mm
10:28 -11.8 °C -12.8 °C 34774.2 hPa West 41.2 km/h 52 km/h 85 % 0 mm
10:33 -11.7 °C -12.8 °C 34774.2 hPa WSW 31.9 km/h 63.7 km/h 85 % 0 mm
10:38 -11.7 °C -12.8 °C 34774.2 hPa WSW 48.1 km/h 63.7 km/h 85 % 0 mm
10:43 -11.7 °C -12.8 °C 34774.2 hPa WSW 32.3 km/h 58.6 km/h 85 % 0 mm
10:48 -11.7 °C -12.8 °C 34774.2 hPa WSW 68.4 km/h 68.4 km/h 85 % 0 mm
10:53 -11.7 °C -12.8 °C 34774.2 hPa WSW 51.5 km/h 68.4 km/h 84 % 0 mm
10:58 -11.7 °C -12.8 °C 34774.2 hPa WSW 66.6 km/h 68.4 km/h 84 % 0 mm
11:03 -11.7 °C -12.8 °C 34774.2 hPa West 63.7 km/h 66.6 km/h 84 % 0 mm
11:08 -11.7 °C -13.3 °C 34774.2 hPa WSW 43.5 km/h 66.6 km/h 83 % 0 mm
11:13 -11.7 °C -12.8 °C 34774.2 hPa SSW 31.4 km/h 61.3 km/h 84 % 0 mm
11:18 -11.7 °C -12.8 °C 34774.2 hPa West 60.8 km/h 63.7 km/h 84 % 0 mm
11:23 -11.7 °C -12.8 °C 34774.2 hPa WSW 44.6 km/h 63.7 km/h 84 % 0 mm
11:28 -11.7 °C -12.8 °C 34774.2 hPa West 57.3 km/h 60.8 km/h 84 % 0 mm
11:33 -11.7 °C -12.8 °C 34774.2 hPa West 43 km/h 71.1 km/h 84 % 0 mm
11:38 -11.7 °C -13.3 °C 34774.2 hPa WSW 45.1 km/h 71.1 km/h 83 % 0 mm
11:43 -11.6 °C -13.3 °C 34774.2 hPa West 26.7 km/h 67.9 km/h 81 % 0 mm
11:48 -11.6 °C -13.3 °C 34774.2 hPa WSW 60.3 km/h 67.9 km/h 81 % 0 mm
11:53 -11.6 °C -13.3 °C 34774.2 hPa West 39.9 km/h 68.4 km/h 80 % 0 mm
11:58 -11.6 °C -13.3 °C 34774.2 hPa WSW 58.6 km/h 68.4 km/h 81 % 0 mm
12:03 -11.7 °C -12.8 °C 34774.2 hPa WSW 49.7 km/h 67.1 km/h 84 % 0 mm
12:08 -11.8 °C -12.8 °C 34774.2 hPa West 41.2 km/h 67.1 km/h 86 % 0 mm
12:13 -11.8 °C -12.8 °C 34774.2 hPa SSW 31.9 km/h 61.3 km/h 88 % 0 mm
12:18 -11.8 °C -12.8 °C 34774.2 hPa West 45.9 km/h 61.3 km/h 89 % 0 mm
12:23 -11.8 °C -12.8 °C 34774.2 hPa West 40.7 km/h 51.5 km/h 89 % 0 mm
12:28 -11.8 °C -12.8 °C 34774.2 hPa WSW 37.5 km/h 58.6 km/h 89 % 0 mm
12:33 -11.8 °C -12.8 °C 34808.1 hPa West 43.5 km/h 59.1 km/h 89 % 0 mm
12:38 -11.9 °C -12.8 °C 34808.1 hPa West 33.6 km/h 59.1 km/h 90 % 0 mm
12:43 -11.9 °C -12.8 °C 34774.2 hPa WSW 51.5 km/h 58.6 km/h 91 % 0 mm
12:48 -12 °C -12.8 °C 34774.2 hPa West 44.1 km/h 58.6 km/h 92 % 0 mm
12:53 -12 °C -12.8 °C 34774.2 hPa West 41.2 km/h 60.3 km/h 93 % 0 mm
12:59 -12 °C -12.8 °C 34774.2 hPa WSW 38.3 km/h 60.3 km/h 93 % 0 mm
13:04 -11.9 °C -12.8 °C 34774.2 hPa WSW 40.7 km/h 57.9 km/h 92 % 0 mm
13:09 -11.9 °C -12.8 °C 34774.2 hPa WSW 44.1 km/h 54.4 km/h 92 % 0 mm
13:14 -11.8 °C -12.8 °C 34774.2 hPa WSW 60.8 km/h 65 km/h 91 % 0 mm
13:19 -11.8 °C -12.8 °C 34774.2 hPa WSW 41.2 km/h 65 km/h 89 % 0 mm
13:24 -11.8 °C -12.8 °C 34774.2 hPa West 45.1 km/h 55.2 km/h 88 % 0 mm
13:29 -11.7 °C -12.8 °C 34774.2 hPa West 33.2 km/h 63.7 km/h 86 % 0 mm
13:34 -11.7 °C -12.8 °C 34774.2 hPa WSW 33.6 km/h 63.7 km/h 85 % 0 mm
13:39 -11.6 °C -12.8 °C 34774.2 hPa West 45.1 km/h 60.8 km/h 85 % 0 mm
13:44 -11.6 °C -12.8 °C 34774.2 hPa WSW 37.5 km/h 59.1 km/h 84 % 0 mm
13:49 -11.6 °C -12.8 °C 34740.4 hPa WSW 59.1 km/h 59.1 km/h 84 % 0 mm
13:54 -11.6 °C -12.8 °C 34740.4 hPa WSW 31.9 km/h 59.1 km/h 83 % 0 mm
13:59 -11.5 °C -12.8 °C 34740.4 hPa West 34.8 km/h 51.5 km/h 83 % 0 mm
14:04 -11.5 °C -12.8 °C 34740.4 hPa WSW 41.7 km/h 51.5 km/h 83 % 0 mm
14:09 -11.4 °C -12.8 °C 34740.4 hPa WSW 33.2 km/h 60.8 km/h 82 % 0 mm
14:14 -11.4 °C -12.8 °C 34703.1 hPa West 34.1 km/h 60.8 km/h 83 % 0 mm
14:19 -11.4 °C -12.8 °C 34703.1 hPa WSW 43 km/h 58.6 km/h 83 % 0 mm
14:25 -11.4 °C -12.8 °C 34703.1 hPa WSW 68.9 km/h 68.9 km/h 83 % 0 mm
14:30 -11.4 °C -12.8 °C 34703.1 hPa WSW 57.9 km/h 68.9 km/h 83 % 0 mm
14:35 -11.4 °C -12.8 °C 34703.1 hPa WSW 60.3 km/h 67.1 km/h 83 % 0 mm
14:40 -11.4 °C -12.8 °C 34703.1 hPa WSW 51 km/h 65.5 km/h 84 % 0 mm
14:45 -11.4 °C -12.8 °C 34703.1 hPa WSW 43 km/h 58.6 km/h 84 % 0 mm
14:50 -11.3 °C -12.8 °C 34703.1 hPa West 51 km/h 58.6 km/h 84 % 0 mm
14:55 -11.3 °C -12.8 °C 34703.1 hPa WSW 33.6 km/h 68.4 km/h 84 % 0 mm
15:00 -11.3 °C -12.8 °C 34669.3 hPa WSW 37.5 km/h 68.4 km/h 84 % 0 mm
15:05 -11.3 °C -12.8 °C 34669.3 hPa WSW 58.6 km/h 67.1 km/h 84 % 0 mm
15:10 -11.3 °C -12.8 °C 34669.3 hPa WSW 51.5 km/h 77.7 km/h 84 % 0 mm
15:15 -11.4 °C -12.8 °C 34703.1 hPa West 48.1 km/h 77.7 km/h 84 % 0 mm
15:20 -11.4 °C -12.8 °C 34703.1 hPa WSW 67.9 km/h 67.9 km/h 84 % 0 mm
15:25 -11.4 °C -12.8 °C 34703.1 hPa WSW 59.1 km/h 67.9 km/h 85 % 0 mm
15:30 -11.4 °C -12.8 °C 34703.1 hPa WSW 52 km/h 62.6 km/h 85 % 0 mm
15:35 -11.3 °C -12.8 °C 34703.1 hPa WSW 33.2 km/h 75.3 km/h 84 % 0 mm
15:40 -11.3 °C -12.8 °C 34703.1 hPa WSW 31.9 km/h 75.8 km/h 84 % 0 mm
15:45 -11.3 °C -12.8 °C 34703.1 hPa WSW 45.9 km/h 75.8 km/h 84 % 0 mm
15:50 -11.4 °C -12.8 °C 34703.1 hPa West 57.9 km/h 69.4 km/h 85 % 0 mm
15:55 -11.4 °C -12.8 °C 34703.1 hPa West 44.6 km/h 69.4 km/h 85 % 0 mm
16:00 -11.4 °C -12.8 °C 34669.3 hPa West 59.5 km/h 77.7 km/h 85 % 0 mm
16:05 -11.4 °C -12.8 °C 34669.3 hPa WSW 57.3 km/h 77.7 km/h 85 % 0 mm
16:10 -11.4 °C -12.8 °C 34669.3 hPa West 68.9 km/h 69.4 km/h 85 % 0 mm
16:15 -11.4 °C -12.8 °C 34703.1 hPa West 66 km/h 71.1 km/h 85 % 0 mm
16:20 -11.5 °C -12.8 °C 34703.1 hPa West 39.9 km/h 71.1 km/h 86 % 0 mm
16:25 -11.5 °C -12.8 °C 34703.1 hPa West 45.1 km/h 67.9 km/h 86 % 0 mm
16:30 -11.6 °C -12.8 °C 34669.3 hPa WSW 38.3 km/h 60.8 km/h 87 % 0 mm
16:35 -11.6 °C -12.8 °C 34669.3 hPa WSW 36 km/h 66 km/h 88 % 0 mm
16:40 -11.6 °C -12.8 °C 34669.3 hPa West 40.7 km/h 66 km/h 88 % 0 mm
16:45 -11.6 °C -12.8 °C 34703.1 hPa WSW 28.5 km/h 60.8 km/h 89 % 0 mm
16:50 -11.7 °C -12.2 °C 34703.1 hPa WSW 51.5 km/h 60.8 km/h 91 % 0 mm
16:55 -11.7 °C -12.2 °C 34703.1 hPa West 28.5 km/h 59.1 km/h 92 % 0 mm
17:00 -11.8 °C -12.2 °C 34703.1 hPa West 40.7 km/h 59.1 km/h 93 % 0 mm
17:05 -11.8 °C -12.2 °C 34703.1 hPa WSW 69.4 km/h 69.4 km/h 94 % 0 mm
17:10 -11.8 °C -12.2 °C 34703.1 hPa West 39.4 km/h 69.4 km/h 94 % 0 mm
17:16 -11.8 °C -12.2 °C 34703.1 hPa West 38.3 km/h 69.4 km/h 95 % 0 mm
17:21 -11.8 °C -12.2 °C 34703.1 hPa WSW 39.9 km/h 62 km/h 95 % 0 mm
17:26 -11.8 °C -12.2 °C 34703.1 hPa West 28.5 km/h 58.6 km/h 95 % 0 mm
17:31 -11.8 °C -12.2 °C 34703.1 hPa West 37.5 km/h 58.6 km/h 94 % 0 mm
17:36 -11.8 °C -12.2 °C 34703.1 hPa WSW 56.6 km/h 56.6 km/h 94 % 0 mm
17:41 -11.7 °C -12.2 °C 34703.1 hPa WSW 26.7 km/h 61.3 km/h 94 % 0 mm
17:46 -11.7 °C -12.2 °C 34703.1 hPa West 28.5 km/h 61.3 km/h 94 % 0 mm
17:51 -11.7 °C -12.2 °C 34703.1 hPa WNW 40.7 km/h 59.1 km/h 94 % 0 mm
17:56 -11.7 °C -12.2 °C 34703.1 hPa WSW 51.5 km/h 62.6 km/h 94 % 0 mm
18:01 -11.7 °C -12.2 °C 34740.4 hPa WSW 33.2 km/h 62.6 km/h 93 % 0 mm
18:06 -11.7 °C -12.2 °C 34740.4 hPa West 20.3 km/h 62.6 km/h 94 % 0 mm
18:11 -11.7 °C -12.2 °C 34740.4 hPa West 38.3 km/h 51 km/h 94 % 0 mm
18:16 -11.7 °C -12.2 °C 34740.4 hPa WSW 28.5 km/h 51 km/h 94 % 0 mm
18:21 -11.7 °C -12.2 °C 34740.4 hPa West 27.7 km/h 49.7 km/h 94 % 0 mm
18:26 -11.7 °C -12.2 °C 34740.4 hPa WSW 43 km/h 50.5 km/h 95 % 0 mm
18:31 -11.7 °C -12.2 °C 34740.4 hPa West 33.2 km/h 50.5 km/h 95 % 0 mm
18:36 -11.7 °C -12.2 °C 34740.4 hPa West 19.6 km/h 50.5 km/h 95 % 0 mm
18:41 -11.7 °C -12.2 °C 34740.4 hPa West 41.2 km/h 50.5 km/h 95 % 0 mm
18:46 -11.7 °C -12.2 °C 34740.4 hPa West 33.6 km/h 46.8 km/h 95 % 0 mm
18:51 -11.7 °C -11.7 °C 34740.4 hPa West 26.7 km/h 46.8 km/h 96 % 0 mm
18:56 -11.7 °C -11.7 °C 34740.4 hPa West 33.2 km/h 45.1 km/h 96 % 0 mm
19:01 -11.7 °C -11.7 °C 34740.4 hPa West 15.6 km/h 45.1 km/h 96 % 0 mm
19:06 -11.7 °C -11.7 °C 34740.4 hPa North 22.5 km/h 44.6 km/h 96 % 0 mm
19:11 -11.7 °C -11.7 °C 34740.4 hPa North 15 km/h 22.5 km/h 97 % 0 mm
19:16 -11.9 °C -12.2 °C 34774.2 hPa NW 6.9 km/h 34.1 km/h 94 % 7.62 mm
19:21 -12.1 °C -12.8 °C 34774.2 hPa NNW 8 km/h 34.1 km/h 93 % 12.7 mm
19:26 -12.2 °C -12.8 °C 34774.2 hPa NE 9.8 km/h 22.5 km/h 92 % 12.7 mm
19:31 -12.3 °C -12.8 °C 34774.2 hPa NNE 7.6 km/h 22.5 km/h 93 % 12.7 mm
19:36 -12.3 °C -12.8 °C 34774.2 hPa NW 6.4 km/h 19.2 km/h 93 % 12.7 mm
19:41 -12.4 °C -12.8 °C 34774.2 hPa NW 9.8 km/h 19.2 km/h 94 % 12.7 mm
19:46 -12.4 °C -12.8 °C 34774.2 hPa West 6.4 km/h 18.7 km/h 94 % 12.7 mm
19:51 -12.4 °C -12.8 °C 34774.2 hPa WNW 5.6 km/h 24.8 km/h 94 % 12.7 mm
19:56 -12.4 °C -12.8 °C 34774.2 hPa NNW 19.2 km/h 24.8 km/h 95 % 12.7 mm
20:01 -12.4 °C -12.8 °C 34774.2 hPa NW 16.3 km/h 20.3 km/h 95 % 12.7 mm
20:06 -12.5 °C -12.8 °C 34774.2 hPa West 12.7 km/h 19.2 km/h 95 % 12.7 mm
20:11 -12.5 °C -12.8 °C 34774.2 hPa West 5.1 km/h 16.3 km/h 95 % 7.62 mm
20:16 -12.6 °C -12.8 °C 34808.1 hPa WNW 8.9 km/h 10.3 km/h 95 % 7.62 mm
20:21 -12.6 °C -12.8 °C 34808.1 hPa WNW 10.3 km/h 16.9 km/h 95 % 0 mm
20:26 -12.6 °C -12.8 °C 34808.1 hPa WNW 2.9 km/h 16.9 km/h 95 % 0 mm
20:32 -12.6 °C -12.8 °C 34808.1 hPa Calm   19.6 km/h 95 % 0 mm
20:37 -12.6 °C -12.8 °C 34808.1 hPa Calm   19.6 km/h 95 % 0 mm
20:42 -12.7 °C -12.8 °C 34808.1 hPa NNW 2.3 km/h 19.6 km/h 95 % 0 mm
20:47 -12.7 °C -12.8 °C 34808.1 hPa WNW 5.1 km/h 12.7 km/h 95 % 0 mm
20:52 -12.7 °C -12.8 °C 34808.1 hPa Calm   12.7 km/h 95 % 0 mm
20:57 -12.7 °C -12.8 °C 34808.1 hPa Calm   11.1 km/h 95 % 0 mm
21:02 -12.8 °C -12.8 °C 34841.9 hPa Calm   12.2 km/h 95 % 0 mm
21:07 -12.8 °C -12.8 °C 34841.9 hPa Calm   12.2 km/h 95 % 0 mm
21:12 -12.9 °C -13.3 °C 34841.9 hPa Calm   11.1 km/h 95 % 0 mm
21:17 -13 °C -13.3 °C 34841.9 hPa Calm   8.9 km/h 95 % 0 mm
21:22 -13.1 °C -13.3 °C 34841.9 hPa WNW 9.8 km/h 9.8 km/h 95 % 0 mm
21:27 -13.2 °C -13.3 °C 34841.9 hPa Calm   9.8 km/h 95 % 0 mm
21:32 -13.2 °C -13.3 °C 34841.9 hPa Calm   9.8 km/h 95 % 0 mm
21:37 -13.3 °C -13.3 °C 34841.9 hPa West 7.6 km/h 9.8 km/h 95 % 0 mm
21:42 -13.4 °C -13.9 °C 34841.9 hPa Calm   9.8 km/h 95 % 0 mm
21:47 -13.5 °C -13.9 °C 34841.9 hPa Calm   7.6 km/h 95 % 0 mm
21:52 -13.7 °C -13.9 °C 34841.9 hPa Calm     95 % 0 mm
21:57 -13.7 °C -13.9 °C 34841.9 hPa Calm   8.9 km/h 96 % 0 mm
22:02 -13.8 °C -13.9 °C 34841.9 hPa Calm   8.9 km/h 96 % 0 mm
22:07 -13.8 °C -13.9 °C 34841.9 hPa Calm     96 % 0 mm
22:12 -13.8 °C -13.9 °C 34841.9 hPa Calm   7.6 km/h 97 % 0 mm
22:17 -13.9 °C -13.9 °C 34841.9 hPa Calm   7.6 km/h 97 % 0 mm
22:22 -13.9 °C -13.9 °C 34841.9 hPa Calm   3.4 km/h 97 % 0 mm
22:27 -14 °C -14.4 °C 34841.9 hPa West 4.2 km/h 5.6 km/h 97 % 0 mm
22:32 -14.1 °C -14.4 °C 34841.9 hPa Calm   10.3 km/h 97 % 0 mm
22:37 -14.2 °C -14.4 °C 34841.9 hPa Calm   10.3 km/h 97 % 0 mm
22:42 -14.3 °C -14.4 °C 34841.9 hPa Calm     97 % 0 mm
22:47 -14.4 °C -14.4 °C 34841.9 hPa Calm     97 % 0 mm
22:52 -14.4 °C -14.4 °C 34841.9 hPa Calm   5.6 km/h 97 % 0 mm
22:57 -14.5 °C -14.4 °C 34841.9 hPa Calm   6.4 km/h 97 % 0 mm
23:03 -14.6 °C -14.4 °C 34841.9 hPa Calm   8 km/h 97 % 0 mm
23:08 -14.6 °C -14.4 °C 34841.9 hPa Calm   8 km/h 98 % 0 mm
23:13 -14.6 °C -14.4 °C 34841.9 hPa Calm     98 % 0 mm
23:18 -14.7 °C -14.4 °C 34875.8 hPa West 2.3 km/h 8 km/h 98 % 0 mm
23:23 -14.7 °C -14.4 °C 34875.8 hPa Calm   8 km/h 98 % 0 mm
23:28 -14.8 °C -14.4 °C 34875.8 hPa Calm   3.4 km/h 98 % 0 mm
23:33 -14.8 °C -14.4 °C 34841.9 hPa Calm     98 % 0 mm
23:38 -14.9 °C -15 °C 34841.9 hPa Calm     98 % 0 mm
23:43 -15.1 °C -15 °C 34841.9 hPa Calm   8 km/h 98 % 0 mm
23:48 -15.2 °C -15.6 °C 34841.9 hPa Calm   8 km/h 97 % 0 mm
23:53 -15.3 °C -15.6 °C 34841.9 hPa Calm     97 % 0 mm
23:58 -15.3 °C -15.6 °C 34841.9 hPa Calm     97 % 0 mm
Le Gheer Warneton
Courtoisie de Weather Underground - 2.25 mb

Mise a jour : 18/02/2018 21:04:11
Généré par Cumulus 1.9.4 (1099)